METEOR 2-11 DEB, 40705

Orbit data source: Space-Track

METEOR 2-11 DEB, 40705 is space debris in LEO originally from a launch on Thu, 05 Jul 1984 UTC launched from the Plesetsk Missile And Space Complex (PKMTR). Debris objects in space refer to the collection of defunct objects orbiting the Earth. Examples of debris include non-operational satellites, rocket bodies, and fragments generated from explosions, collisions, or faulty payload assembly.

Loading next visibility...
METEOR 2-11 DEB details
Identifier
40705, 1984-072G
Orbit
LEO
Last TLE update1 day ago
Origin
Flag of CISVVKO (CIS)
ManufacturerUnknown
MissionSpacecraft
Bus & MotorUnknown
MassUnknown
Launch date (UTC)
1984-07-05 (40 years ago)
Launch vehicleUnknown
Launch site
Plesetsk Missile And Space Complex (PKMTR)
Object type
Payload
Rocket body
Debris
Shape & HBRUnknown
Radar Cross SectionSmall (<0.1 m²)

Expand to show TLE details & history

TLE from 1 day ago
0 METEOR 2-11 DEB
1 40705U 84072G   24339.09702214  .00003858  00000-0  28468-2 0  9997
2 40705  82.5214 103.1523 0024944 204.8873 155.1092 13.95047380509153
Epoch: 2024-12-04T02:19Z
Definitive object data (Epoch: 2024-12-04T02:19:42.712Z)
Latitude-0.00008°
Longitude-5.17275°
Altitude930.417 km
Speed7.378 km/s
True Right ascension06h 52m 36s
True Declination0° 00' 00"
Sunlit
Object was in full shadow at TLE epoch
Visualization TLE readout
Latitude-7.53658°
Longitude-7.26738°
Altitude931.145 km
Speed7.378 km/s
Apparent Right ascension04h 02m 02s
Apparent Declination-50° 21' 25"
Sunlit
Object is in full shadow
Visualization observer readout
Local Sidereal Time08:58:21
Azimuth221.116° SW
Elevation-21.092°
Doppler factor1
Orbital elements
Apogee altitude926.309 km
Perigee altitude889.959 km
Semi-major axis7,286.271 km
Eccentricity0.0024944
Inclination82.5214°
RAAN103.1523°
Arg. of periapsis204.8873°
True anomaly155.22917°
Mean anomaly155.1092°
Eccentric anomaly155.16922°
Mean motion3.48968 °/min
BSTAR0.0028468
Orbital period103.16 mins
Loading maneuver chart data...
Loading historical data...
Loading historical data...
Loading historical data...
Loading historical data...
Loading historical data...
Loading historical data...
Loading historical data...

METEOR 2-11 DEB Visibility forecast

Observer location: undefined°, undefined

Span
Click to sort rows by Start time (UTC) header in descending order
Start Az.
Max El. time (UTC)
Max El. Az.
Max El.
End time (UTC)
End Az.
10 mins2024-12-05 20:13:52.305Z354.086° N2024-12-05 20:18:52.305Z143.192° SSE44.584°2024-12-05 20:23:52.305Z171.793° S
7 mins2024-12-06 07:49:52.305Z121.254° SE2024-12-06 07:52:52.305Z85.756° E19.616°2024-12-06 07:56:52.305Z41.022° NE
10 mins2024-12-06 09:31:52.305Z208.559° SW2024-12-06 09:36:52.305Z293.662° NW38.292°2024-12-06 09:41:52.305Z356.521° N
|